Showing default

INTELSAT 34, 40874

Orbit data source: Space-Track

INTELSAT 34, 40874 is a payload satellite owned by Intelsat SA (US) (US) in GEO that was launched on Thu, 20 Aug 2015 UTC via an ARIANE 5ECA launch vehicle from the French Guiana (FRGUI). Payload-class satellites include a variety of spacecraft equipped with specific instruments for various scientific and technological missions. These include communications satellites like Starlink; space stations such as the ISS; scientific satellites like the Hubble; Earth observation satellites from companies like Planet Labs, Umbra, and HawkEye 360; GPS; miniature CubeSats for education and research; and military/defense satellites.

Loading next visibility...
Identifier
40874, 2015-039A
Orbit
GEO
Country
Flag of USUS / ITSO
Related business
Manufacturer
SS/Loral (MDA)
Mission
Operational Commercial Communications
Bus & Motor
LS-1300, R-4D
Mass
3,300 kg wet, ~1,800 kg dry
Launch date (UTC)
2015-08-20 (11 years ago)
Launch vehicle
ARIANE 5ECA
Launch site
French Guiana (FRGUI)
Object type
Payload
Rocket body
Debris
Shape & HBR
Box + 2 Pan, 12.3 m
Radar Cross Section
38.748 m², Large (>1 m²)

Expand to show TLE details & history
Last TLE update: 10 hours ago

TLE from 10 hours ago
0 INTELSAT 34
1 40874U 15039A   26071.27549183 -.00000285  00000-0  00000-0 0  9992
2 40874   0.0231 263.9334 0000381 210.8912  98.7674  1.00270132 38655
Epoch: 2026-03-12T06:36Z
TLE epoch observation values (Epoch: 2026-03-12T06:36:42.494Z)
Latitude
0.00261°
Longitude
-55.48959°
Altitude
35,786.788 km
Speed
3.075 km/s
True Right ascension
14h 14m 27s
True Declination
0° 00' 09"
Sunlit
Object was in daylight at epoch
Visualization orbit readout
Latitude
Unknown
Longitude
Unknown
Altitude
Unknown
Speed
Unknown
Apparent Right ascension
Unknown
Apparent Declination
Unknown
Sunlit
N/A
Visualization observer readout
Local Sidereal Time
21:27:01
Azimuth
Unknown
Elevation
Unknown
Doppler factor
Unknown
Orbital elements
Apogee altitude
35,789.735 km
Perigee altitude
35,786.522 km
Semi-major axis
42,166.266 km
Eccentricity
0.00004
Inclination
0.0231°
RAAN
263.9334°
Arg. of periapsis
210.8912°
True anomaly
98.77171°
Mean anomaly
98.7674°
Eccentric anomaly
98.76956°
Mean motion
0.25067 °/min
Orbital period
1,436.17 mins
BSTAR
0
Loading maneuver chart data...
Computing Atmospheric mass density...
Loading historical data...
Loading historical data...
Loading historical data...
Loading historical data...
Loading historical data...
Loading historical data...
Loading historical data...
Other satellites on launch #39 in the year 2015 (2015-08-20 UTC)

Documentation

Showing up to 5 results
|